Location: Oberwangen
(47.4286°N, 8.9679°E)
Time: 04:35:11
(UTC+00:00)

FALCON 9 DEB - Visible Passes

Search period start: 17 October 2021 00:00
Search period end: 27 October 2021 00:00
Orbit: 355 x 364 km, 53.0° (Epoch: 16 October)

Date Brightness Start Highest point End Pass type
(mag) Time Alt. Az. Time Alt. Az. Time Alt. Az.
17 Oct 5.6 03:19:12 15° ESE 03:19:12 15° ESE 03:19:51 10° ESE visible
17 Oct 4.8 04:50:58 13° WSW 04:51:48 14° SW 04:53:26 10° SSW visible
18 Oct 5.3 03:47:39 15° SSE 03:47:39 15° SSE 03:48:18 10° SSE visible
25 Oct 6.0 18:47:37 10° SW 18:47:41 10° SW 18:47:41 10° SW visible
26 Oct 4.0 17:41:10 10° SSW 17:43:38 26° SE 17:43:38 26° SE visible
